Вернуться в каталог

CZ-6A DEB

АктивенPO
NORAD 56680·DEBRIS·🇨🇳 China

Запущен Nov 11, 2022 с Taiyuan Satellite Launch Center

Loading…

Ближайшие Пролёты (ближайшие 24 часа)

TLE

СвежийSource: Space-Track

Эпоха: Sep 14, 2026, 02:47 UTC

1 56680U 22151AHG 26257.11629906  .00005765  00000-0  10364-2 0  9991
2 56680  98.6098 322.6497 0078361  18.3492 342.0509 14.65070797183957

Отслеживайте CZ-6A DEB в реальном времени с AllMySat

Download on the App Store